Dewpoint
-3 -4 -10 -5 -7 -6 -5 -6 -9 -8 -9 -9 -8 -1 6 7 9 10 13 14 14 14 13 10 8 7 9 10 10 11 10 6 2 4 2 1 10 9 12 12 10 12 12 13 13 11 8 5 1
1 -5 -3 -3 -8 -6 -8 -9 -6 -9 -11 -7 -5 -1 -1 6 13 13 14 14 15 14 12 6 0 -1 -0 2 3 5 6 1 8 10 7 4 11 12 9 12 11 11 11 11 12 11 6 4 8
1 -5 -2 -5 -9 -9 -8 -10 -10 -9 1 -2 -5 4 1 6 14 13 14 15 15 14 13 5 2 0 -1 -2 -3 -1 6 10 12 10 6 5 10 12 11 10 12 12 10 10 10 9 5 4 8
3 0 -2 -5 -9 -11 -12 -12 -13 -11 -8 -3 -1 -0 11 13 14 14 14 15 14 14 13 7 6 6 5 2 -0 9 10 11 11 10 5 3 9 10 9 5 10 10 9 7 6 6 3 9 10
2 -0 -5 -5 -9 -13 -12 -14 -15 -12 -12 -4 -1 2 10 14 14 14 14 15 14 14 14 10 9 8 6 2 2 8 10 11 10 7 11 8 5 5 -1 6 10 3 0 2 0 2 3 11 10
-1 -2 -5 -7 -10 -12 -10 -13 -9 -8 -12 -11 -3 6 11 14 15 15 16 15 15 15 14 13 10 7 4 1 0 4 7 7 7 8 11 10 9 4 5 7 7 8 9 10 6 6 10 12 11
-0 -3 -7 -12 -12 -11 -8 -10 -11 -10 -8 -8 -1 2 13 14 15 15 16 15 15 14 13 13 9 6 3 3 2 3 4 2 3 9 11 11 10 6 10 11 10 10 11 10 9 6 9 10 10
1 -0 -7 -9 -10 -11 -15 -9 -12 -11 -11 -2 2 0 10 14 14 14 15 15 14 13 13 13 10 7 6 6 6 5 5 4 -2 7 9 11 10 7 9 11 10 10 10 9 9 8 8 9 9
3 1 -3 -7 -9 -12 -12 -12 -10 -10 -11 -3 7 9 10 15 14 14 14 15 14 13 13 13 11 12 10 9 9 9 9 1 3 5 9 10 11 9 9 11 10 10 10 9 8 8 8 8 9
2 2 -1 -8 -9 -10 -9 -11 -12 -10 -11 -9 5 11 13 14 14 14 14 15 13 13 13 12 11 12 12 11 11 11 7 6 8 7 9 9 10 9 9 10 10 10 10 9 9 7 7 8 8
3 2 -3 -4 -5 -7 -9 -7 -9 -10 -11 -10 -2 11 15 14 14 14 14 15 12 12 13 13 12 12 12 12 11 12 12 11 9 9 10 9 9 9 9 8 10 9 9 9 8 8 8 8 8
5 -0 -1 -3 -2 -3 -6 -7 -6 -7 -11 -9 -3 9 14 14 14 14 14 15 14 13 13 13 11 13 12 13 12 12 12 11 8 4 7 9 9 9 9 9 9 9 9 8 9 8 9 9 8
6 3 -0 -2 -1 -2 -1 -4 -5 -4 -5 -4 0 10 13 14 14 14 14 15 14 14 13 13 12 12 13 12 13 11 12 11 9 8 7 7 9 8 9 9 9 9 9 8 9 8 9 9 8
2 4 3 0 -1 -1 -2 -3 -2 -6 -5 -3 2 10 12 14 14 14 14 14 14 14 15 13 12 11 12 12 12 11 12 12 11 10 8 2 8 8 8 9 9 8 9 8 8 8 9 9 8
3 4 2 2 1 0 -0 -0 -2 -4 1 -2 3 9 12 14 14 14 14 13 13 13 13 14 13 12 12 13 12 11 10 13 12 11 8 2 -0 1 3 9 9 9 9 9 9 9 9 9 9
2 4 7 1 1 -1 1 0 -4 -4 -3 -0 5 8 12 13 14 14 14 14 12 14 13 13 14 12 12 12 12 11 9 12 12 12 10 9 8 2 -1 5 9 6 7 8 9 9 9 9 9
4 3 6 3 -1 -1 0 -1 -5 -3 -3 -5 3 8 12 13 14 14 14 13 13 13 13 13 13 14 12 12 11 9 9 10 12 12 11 11 10 8 3 2 7 6 4 7 8 9 9 9 9
3 6 0 2 -1 0 0 -1 -4 -3 -3 -5 -2 8 12 13 13 13 13 13 13 13 13 13 13 13 12 11 10 10 9 7 11 11 11 11 11 11 8 2 1 4 5 4 7 7 9 9 9
3 0 1 -0 -3 -0 1 0 -2 -3 -2 -3 -2 6 11 12 12 13 13 13 12 13 13 13 13 13 12 11 11 10 9 8 8 12 10 11 10 11 11 8 1 2 1 2 7 8 7 8 8
2 4 3 -3 -2 -1 -1 -1 -1 -1 -1 3 5 10 11 10 11 11 13 13 12 12 13 14 13 12 11 10 10 9 9 9 7 9 11 10 11 10 11 11 8 3 2 3 6 6 7 7 7
-0 3 4 -1 0 -1 -1 -0 0 -2 -2 1 2 4 6 7 9 9 11 12 12 12 12 13 13 11 11 10 10 10 11 10 10 9 11 10 11 10 11 11 11 8 5 4 4 5 7 7 7
-3 -4 0 4 2 4 1 -0 1 -0 -1 -0 -2 -1 0 3 5 6 8 10 10 11 12 13 11 11 11 10 10 11 11 11 10 11 10 10 10 11 11 11 11 11 9 7 7 6 7 7 8
-4 -4 1 3 5 1 2 2 -1 -0 1 -1 -4 -4 -3 -1 1 3 5 8 9 10 12 12 12 11 11 11 11 11 11 11 11 11 11 11 11 10 11 11 10 10 10 9 8 8 8 7 7
-5 -2 -1 1 4 7 0 1 0 1 -0 -4 -6 -6 -5 -4 -2 -0 2 5 7 9 11 12 12 12 12 12 11 11 10 11 11 11 11 10 10 11 11 10 10 10 9 10 9 9 10 9 9
-7 -2 1 3 4 6 -0 3 -3 -7 -7 -5 -7 -6 -6 -6 -4 -3 -0 2 4 6 8 10 11 11 11 12 11 11 11 11 11 10 10 9 9 10 10 10 10 10 11 11 10 11 11 11 10
-8 -5 -2 2 2 4 0 4 -4 -8 -8 -8 -8 -8 -7 -6 -6 -5 -3 -1 2 3 4 7 8 10 11 11 11 10 11 9 10 9 9 8 9 8 7 8 9 10 10 10 9 8 9 10 10
-8 -5 -8 -5 -4 3 1 -6 -7 -7 -7 -7 -8 -9 -9 -8 -7 -7 -5 -3 -1 0 2 5 6 8 8 10 10 10 10 10 10 10 9 7 8 9 9 9 9 10 9 10 10 10 8 7 5
-11 -10 -6 -4 -1 3 -2 -4 -5 -5 -7 -8 -9 -9 -9 -9 -8 -8 -6 -5 -4 -1 -0 2 3 4 6 7 7 8 9 9 9 8 8 8 8 8 6 5 4 5 7 8 8 9 8 8 5
-12 -11 -11 -10 -7 0 -0 -5 -7 -6 -7 -8 -9 -9 -10 -10 -10 -9 -8 -7 -5 -4 -2 -0 1 3 3 5 5 5 5 5 5 5 5 5 5 5 4 3 3 3 3 4 6 6 7 8 7
-14 -11 -11 -8 -5 -6 -5 -9 -7 -7 -8 -8 -8 -9 -10 -10 -11 -10 -9 -8 -7 -5 -3 -2 -1 0 1 2 3 3 3 2 2 1 1 1 1 2 3 4 5 5 5 5 5 5 5 6 7
Wind_Speed
12 12 14 11 6 6 18 13 7 7 5 8 4 7 10 2 7 1 10 19 31 30 30 29 27 26 25 22 19 16 14 13 11 11 14 18 18 21 20 18 19 16 16 18 17 18 19 18 20
13 13 13 5 8 13 17 21 15 11 4 4 5 6 6 8 3 8 19 24 32 30 30 29 27 25 23 22 19 17 16 14 14 13 15 20 21 18 18 20 17 14 14 15 17 18 19 20 20
14 17 9 5 9 21 17 15 17 15 5 6 8 5 5 3 5 13 13 31 31 30 30 30 29 26 23 21 20 20 20 18 17 13 14 20 23 21 17 19 20 16 14 15 17 18 18 18 18
11 8 3 8 20 23 23 5 11 16 9 7 7 6 4 6 7 13 28 34 32 30 28 31 28 25 23 22 22 22 22 21 16 12 16 21 21 21 15 13 22 15 15 16 17 17 18 18 18
11 7 9 11 25 19 11 9 9 12 15 13 13 6 4 6 8 17 35 35 32 32 30 30 27 24 22 22 24 25 24 20 16 16 16 15 18 15 12 19 23 18 20 20 19 21 21 18 18
10 6 9 20 25 22 12 15 9 10 14 12 11 6 4 8 14 28 37 34 32 33 32 29 26 24 22 23 24 24 22 18 17 21 17 16 17 21 25 27 24 23 22 21 20 22 22 20 17
16 9 20 21 21 20 15 14 17 12 10 15 6 11 4 11 18 35 37 34 32 30 32 29 28 25 23 23 23 22 20 18 20 22 22 18 17 21 25 24 22 21 22 20 17 19 17 18 16
17 6 18 19 19 15 20 10 13 19 13 3 12 10 7 17 24 37 38 34 32 33 32 30 29 28 26 25 24 23 21 20 21 23 23 21 18 19 25 23 21 20 19 17 14 15 17 16 14
15 10 16 24 22 14 10 16 12 9 17 10 12 5 7 27 29 37 40 34 33 35 33 30 29 28 27 27 26 24 21 18 19 23 23 22 18 17 26 22 21 19 17 16 12 12 15 13 12
17 15 22 13 16 13 11 14 14 11 17 20 13 10 15 31 35 42 43 40 40 39 36 34 32 30 30 28 28 26 23 19 19 22 23 18 18 15 19 24 22 20 17 15 11 19 16 14 10
18 23 21 17 13 16 9 11 8 12 17 22 27 18 24 33 38 40 44 43 48 44 38 36 35 33 31 30 29 26 22 19 19 21 20 18 17 17 18 22 22 19 14 13 15 14 12 12 11
16 27 27 24 9 7 11 10 9 16 13 19 20 24 30 37 43 46 45 42 43 43 41 38 37 34 32 32 30 28 24 21 20 21 19 19 17 18 16 17 17 15 13 15 14 12 12 12 12
25 22 15 30 16 18 8 13 11 11 16 5 13 25 31 38 41 43 44 38 42 41 42 40 39 37 35 34 32 29 26 23 21 19 18 18 17 17 17 16 16 16 15 13 13 12 12 11 11
13 24 29 20 30 13 18 18 6 14 15 10 12 26 31 39 42 41 42 36 40 42 41 40 41 38 37 35 32 28 27 24 21 18 17 18 17 17 17 17 15 17 16 14 13 12 12 11 10
17 18 12 28 26 17 21 17 23 22 4 15 16 24 30 37 40 45 46 47 44 44 43 43 40 40 37 35 31 28 27 26 22 19 16 17 17 17 18 16 16 17 17 16 14 13 11 10 10
25 15 20 19 24 23 16 28 24 22 20 8 14 22 28 34 39 43 45 46 45 39 44 41 43 39 37 35 32 29 27 27 24 21 19 18 17 17 17 17 16 19 20 18 16 13 11 10 10
11 22 24 24 14 20 24 17 16 25 23 23 13 20 26 29 34 37 43 46 47 45 46 45 42 40 38 35 32 28 26 27 26 24 21 19 17 17 16 18 16 18 18 19 16 14 11 10 10
22 21 19 29 22 20 21 23 7 16 24 26 20 20 25 30 32 37 39 43 47 45 46 43 41 39 36 34 30 28 26 26 27 26 24 22 19 16 17 17 18 18 17 19 18 14 13 10 10
10 23 27 14 20 18 21 18 19 9 16 20 25 23 22 31 29 34 39 41 44 44 44 43 40 39 37 35 33 30 30 30 28 28 25 24 21 20 17 16 18 18 18 19 18 15 14 15 11
11 13 22 22 16 22 16 21 17 1 4 1 10 18 27 28 26 27 37 39 41 43 41 42 41 40 38 36 34 32 29 28 27 28 27 25 23 23 19 17 17 17 17 20 20 17 17 15 14
13 10 10 22 17 21 16 18 19 3 7 6 11 11 15 21 24 23 29 40 41 40 42 42 42 39 38 35 35 33 31 30 29 30 31 30 27 22 21 19 17 18 18 18 18 17 13 13 16
13 13 14 11 21 18 22 12 22 13 8 6 9 12 11 13 20 19 23 31 35 38 40 41 41 40 39 38 36 35 35 36 35 33 30 29 29 27 23 21 19 17 17 17 16 17 17 15 13
9 14 14 15 14 22 25 12 18 17 11 10 8 11 11 12 14 16 19 25 28 32 35 39 41 39 37 36 33 31 29 30 29 29 31 31 29 29 27 25 21 20 19 17 17 16 17 15 16
12 10 12 11 7 14 23 20 16 13 9 11 10 12 13 12 12 14 16 20 24 27 32 35 38 39 37 35 32 30 28 30 28 26 26 26 25 26 25 25 24 24 23 23 21 20 19 18 20
16 6 7 9 7 5 23 18 9 7 6 10 11 12 13 13 13 13 16 18 22 26 29 32 33 34 34 33 31 28 25 25 29 25 26 24 21 20 20 23 24 24 24 22 23 21 22 22 22
11 5 5 10 7 5 20 11 5 7 11 15 15 14 14 14 14 13 14 15 18 20 22 28 28 30 30 31 29 29 27 25 26 25 23 21 20 19 21 22 23 21 20 20 21 21 23 23 22
7 3 6 5 7 5 5 5 8 7 10 14 15 15 16 15 14 12 13 14 15 16 19 23 23 27 27 29 30 30 29 29 29 27 26 25 25 25 24 24 25 24 24 23 23 24 25 24 24
6 7 1 2 10 6 4 7 7 5 8 10 13 15 14 14 13 13 13 13 12 14 15 19 20 20 23 24 25 28 26 27 27 28 28 30 31 31 29 29 30 31 31 31 29 28 27 28 26
9 5 4 3 4 4 4 5 13 6 10 10 13 15 14 15 15 13 13 12 13 11 13 14 15 18 18 21 23 24 24 24 25 27 28 30 32 33 32 31 30 30 31 32 33 34 32 32 31
6 11 5 3 4 3 3 3 8 11 13 14 14 14 15 16 15 14 13 12 11 11 10 11 11 14 15 17 18 19 21 22 23 25 27 28 28 28 28 29 28 27 27 27 28 29 30 31 32
Wind_Direction
192 176 166 158 207 231 232 229 233 183 209 210 186 193 201 342 173 87 149 160 158 157 161 165 168 167 167 168 170 165 158 152 146 147 142 131 123 129 130 130 137 134 133 132 129 119 105 96 100
178 167 162 199 236 212 227 224 208 199 168 171 198 209 213 201 138 130 144 160 157 156 159 162 165 165 166 168 168 164 156 146 140 145 136 137 131 134 137 141 136 147 149 149 132 122 109 103 111
176 165 182 209 226 228 232 204 221 211 167 177 196 216 220 151 158 154 162 156 158 156 157 162 162 161 161 160 158 154 147 145 151 139 139 145 142 137 141 153 148 142 145 140 131 121 114 112 116
172 181 229 233 224 231 236 208 214 204 207 196 204 208 192 192 166 165 158 156 157 157 158 162 162 161 161 159 154 151 151 155 157 143 132 138 152 158 157 139 153 142 138 132 132 129 123 119 116
179 190 217 232 235 234 225 229 195 205 204 196 188 197 186 179 161 162 160 158 160 157 161 163 163 163 163 161 157 159 160 165 155 144 134 125 139 144 146 131 132 133 125 119 122 126 126 129 123
193 231 214 227 230 228 236 217 208 214 207 191 198 196 171 183 163 162 159 159 161 158 163 162 165 165 164 162 162 163 165 164 154 146 140 132 129 120 121 120 121 122 119 116 113 127 130 128 124
225 221 227 231 241 221 225 209 217 207 198 206 209 207 164 165 166 160 162 161 161 160 162 164 165 164 162 161 162 163 162 161 156 152 148 140 130 126 128 124 122 123 126 121 121 128 133 122 125
216 246 234 230 229 242 217 209 215 214 214 189 193 207 179 175 168 164 166 163 164 163 168 165 164 163 160 158 157 153 150 150 153 154 150 144 138 128 135 131 130 133 131 128 128 131 139 132 132
199 231 228 220 226 222 195 211 196 217 218 203 200 204 179 167 168 165 166 165 169 168 170 167 166 162 162 157 156 153 149 146 151 155 153 147 140 130 135 138 137 135 139 131 136 141 137 134 137
204 225 230 228 232 238 196 209 196 195 208 219 206 197 160 168 169 169 175 172 174 173 173 172 170 166 164 162 158 157 151 146 146 155 153 146 143 139 148 146 142 144 144 143 133 114 111 103 108
220 235 225 225 241 241 233 214 208 209 214 213 208 184 168 175 175 176 179 178 179 174 174 176 172 169 169 167 164 162 155 149 148 153 156 152 153 149 143 153 151 145 142 141 134 124 112 104 97
240 229 241 236 227 242 235 242 219 216 212 221 216 195 174 180 183 183 181 181 179 178 178 179 177 173 174 173 169 167 164 155 151 153 158 157 152 153 150 155 160 153 154 136 131 129 120 108 96
227 238 236 238 252 232 230 231 242 233 230 210 200 190 184 185 187 187 183 180 179 177 182 182 181 177 179 176 176 174 172 162 158 154 157 163 158 155 158 152 159 158 152 143 140 133 127 116 100
229 228 243 249 236 234 234 240 236 236 241 232 205 195 192 189 188 187 183 180 183 181 183 184 186 184 183 183 181 178 176 172 165 158 156 160 160 161 157 157 157 157 157 145 140 135 133 122 108
255 238 231 232 232 230 226 256 226 227 240 219 206 199 195 191 190 191 189 189 187 186 187 186 185 188 187 187 184 182 181 177 173 165 158 158 161 163 161 156 157 158 163 156 150 139 132 127 119
222 241 241 230 227 215 191 247 225 221 222 222 210 200 198 193 194 194 193 189 191 184 188 187 189 188 190 188 189 186 185 184 180 174 164 159 156 160 162 163 162 162 166 170 163 153 143 133 128
220 228 226 221 215 208 208 242 229 213 213 225 220 205 198 191 190 190 194 197 195 191 188 192 189 188 189 189 190 188 186 190 186 181 174 164 159 158 162 169 171 170 171 174 169 166 159 147 141
211 224 236 224 213 212 218 230 194 210 206 216 215 205 194 185 180 189 194 197 195 194 194 189 190 186 189 190 190 189 189 192 192 188 183 172 169 164 163 168 176 177 177 177 175 174 171 165 159
323 245 218 229 205 208 223 225 220 237 209 210 203 200 178 177 173 179 191 196 196 196 192 191 189 189 189 190 190 191 192 193 194 193 188 182 182 179 171 167 174 179 178 175 173 173 173 176 172
295 296 233 216 208 218 223 222 206 182 125 175 213 170 174 170 167 172 181 193 197 198 192 190 191 190 191 193 193 193 192 195 196 195 191 190 190 186 182 175 177 181 185 178 179 182 177 183 183
275 262 288 211 198 221 228 224 197 111 116 80 58 108 144 165 167 169 169 181 190 189 187 188 194 190 191 193 193 192 190 192 193 196 196 193 193 192 193 188 186 186 187 193 193 193 200 202 194
289 231 256 293 196 203 203 219 201 174 147 112 62 64 93 138 156 163 164 174 182 185 186 191 192 190 192 196 198 197 194 194 196 196 196 196 194 197 199 201 197 195 199 196 206 208 209 214 216
278 333 301 257 255 209 190 223 186 159 175 149 87 75 78 121 137 152 153 162 168 173 176 184 190 190 192 197 203 204 203 203 204 201 198 202 200 197 200 204 203 208 209 203 216 214 222 225 231
325 284 250 269 221 212 186 199 174 177 185 138 100 78 74 97 118 129 137 148 155 159 171 179 187 190 193 194 196 201 204 204 199 197 195 198 205 208 209 210 212 211 214 216 215 220 229 226 225
2 319 207 206 225 232 190 193 68 57 45 139 117 92 80 87 98 109 124 132 143 153 162 168 176 179 186 190 192 194 193 196 194 194 198 201 208 209 208 212 217 219 220 224 219 221 235 235 239
307 315 301 213 201 156 173 184 96 72 87 86 89 85 81 80 86 87 100 112 128 140 150 159 163 175 178 184 187 191 194 195 203 199 202 208 212 215 218 219 218 214 223 226 228 232 238 239 245
343 331 345 293 256 255 92 85 92 92 89 82 78 71 64 68 75 75 87 99 116 134 140 151 158 165 172 181 185 188 192 196 200 204 209 217 219 220 224 227 229 232 233 231 236 240 243 244 248
25 349 222 194 225 228 65 71 74 91 82 74 69 62 57 57 67 67 74 86 101 115 127 146 153 161 166 179 182 191 198 204 210 213 216 220 225 230 232 234 236 235 234 236 236 237 238 242 246
8 15 338 281 277 301 141 79 336 89 80 75 68 64 58 54 52 56 64 72 81 102 116 131 142 156 167 174 182 189 196 206 210 216 221 225 228 230 232 234 235 235 235 234 235 236 238 240 242
35 8 336 300 3 1 54 60 16 75 78 76 70 67 61 56 55 52 56 65 74 81 105 111 130 146 157 174 179 184 193 201 210 216 222 225 226 226 224 225 227 228 229 231 231 232 236 238 238
Height
1512 1514 1517 1521 1523 1513 1501 1494 1495 1499 1502 1499 1501 1501 1499 1496 1498 1504 1505 1508 1512 1517 1522 1527 1531 1535 1538 1542 1545 1548 1550 1551 1553 1554 1556 1558 1560 1562 1564 1565 1565 1566 1567 1567 1567 1568 1569 1570 1570
1511 1514 1518 1518 1511 1505 1491 1486 1498 1492 1495 1498 1501 1501 1501 1497 1501 1501 1505 1510 1514 1518 1521 1526 1531 1535 1539 1542 1546 1548 1551 1552 1554 1556 1557 1559 1562 1564 1565 1567 1568 1568 1568 1569 1570 1571 1572 1573 1574
1511 1513 1516 1509 1500 1487 1484 1484 1489 1494 1496 1497 1498 1501 1500 1497 1501 1501 1504 1509 1515 1519 1523 1526 1531 1535 1539 1543 1546 1549 1552 1553 1555 1557 1558 1560 1563 1565 1566 1567 1569 1569 1570 1572 1573 1574 1575 1576 1577
1511 1515 1514 1503 1488 1480 1480 1485 1487 1491 1496 1496 1497 1496 1499 1498 1500 1502 1504 1511 1516 1521 1525 1527 1532 1537 1540 1543 1546 1550 1553 1554 1557 1559 1560 1562 1563 1565 1567 1568 1569 1572 1573 1574 1575 1577 1578 1579 1579
1509 1509 1501 1497 1484 1481 1489 1489 1490 1488 1488 1491 1494 1490 1495 1496 1498 1500 1503 1510 1516 1520 1525 1529 1533 1538 1541 1544 1548 1551 1554 1556 1559 1560 1562 1564 1565 1567 1567 1569 1572 1574 1575 1577 1577 1579 1581 1581 1581
1507 1502 1494 1486 1478 1478 1488 1488 1489 1487 1487 1490 1493 1492 1494 1494 1498 1499 1505 1511 1516 1520 1524 1530 1535 1539 1542 1546 1549 1552 1555 1557 1560 1562 1564 1566 1567 1569 1570 1572 1574 1576 1578 1579 1581 1581 1583 1583 1584
1499 1496 1482 1473 1472 1476 1485 1486 1485 1484 1485 1486 1488 1488 1494 1494 1497 1499 1504 1511 1517 1521 1526 1531 1535 1540 1544 1547 1550 1553 1556 1559 1560 1563 1566 1568 1570 1572 1574 1576 1578 1579 1581 1582 1583 1584 1585 1586 1587
1498 1494 1478 1471 1474 1474 1474 1482 1480 1482 1482 1484 1487 1484 1489 1493 1495 1500 1506 1511 1517 1521 1526 1531 1535 1540 1544 1548 1552 1554 1557 1560 1561 1564 1568 1570 1572 1574 1577 1578 1581 1582 1584 1585 1586 1586 1587 1588 1590
1495 1486 1472 1469 1472 1467 1474 1475 1478 1479 1481 1483 1484 1485 1486 1489 1495 1500 1505 1511 1516 1522 1525 1530 1535 1540 1544 1548 1552 1555 1558 1560 1562 1566 1569 1572 1574 1577 1580 1581 1583 1585 1586 1587 1588 1589 1589 1590 1592
1485 1475 1467 1465 1468 1469 1471 1471 1473 1475 1476 1479 1482 1482 1485 1487 1492 1496 1501 1505 1512 1518 1523 1528 1534 1539 1543 1548 1551 1555 1558 1561 1563 1566 1570 1574 1577 1579 1581 1583 1585 1587 1588 1589 1590 1591 1592 1594 1595
1474 1461 1466 1467 1474 1473 1471 1471 1470 1469 1469 1470 1473 1479 1483 1487 1491 1494 1499 1502 1503 1513 1521 1526 1532 1537 1543 1546 1550 1555 1559 1562 1564 1567 1571 1574 1576 1578 1582 1584 1587 1588 1590 1591 1592 1594 1596 1597 1597
1469 1466 1468 1468 1472 1471 1470 1469 1466 1466 1466 1468 1472 1476 1477 1484 1486 1490 1496 1501 1506 1512 1518 1524 1530 1535 1541 1545 1550 1554 1558 1561 1564 1567 1570 1573 1576 1579 1582 1585 1587 1590 1592 1593 1595 1597 1597 1598 1599
1464 1464 1466 1468 1469 1469 1470 1467 1466 1465 1466 1467 1469 1473 1475 1479 1484 1489 1495 1501 1506 1510 1516 1522 1528 1533 1538 1543 1548 1553 1557 1561 1564 1567 1569 1572 1575 1579 1582 1585 1587 1590 1592 1594 1596 1598 1599 1600 1600
1458 1464 1464 1463 1463 1467 1466 1464 1467 1461 1464 1465 1467 1469 1473 1476 1481 1487 1493 1498 1503 1509 1514 1520 1526 1531 1536 1541 1546 1552 1556 1560 1564 1567 1569 1572 1575 1578 1580 1584 1587 1589 1593 1595 1597 1599 1600 1601 1602
1459 1459 1455 1455 1460 1460 1466 1461 1452 1460 1461 1462 1464 1466 1470 1473 1478 1481 1487 1493 1499 1506 1512 1517 1524 1529 1535 1540 1546 1551 1556 1560 1564 1567 1569 1572 1574 1577 1579 1584 1586 1588 1592 1595 1597 1599 1601 1602 1603
1453 1460 1453 1446 1451 1456 1461 1434 1449 1456 1459 1460 1462 1464 1467 1471 1474 1480 1485 1491 1498 1503 1509 1515 1521 1528 1534 1539 1544 1549 1555 1560 1563 1566 1569 1572 1574 1577 1579 1582 1586 1587 1591 1594 1597 1600 1602 1604 1605
1447 1434 1444 1442 1442 1447 1450 1437 1441 1448 1453 1456 1460 1462 1465 1469 1473 1478 1483 1488 1494 1499 1506 1511 1519 1525 1531 1538 1543 1548 1554 1558 1562 1566 1569 1571 1574 1576 1579 1582 1585 1587 1590 1594 1597 1600 1603 1604 1606
1426 1436 1428 1431 1434 1441 1440 1439 1439 1446 1447 1450 1455 1459 1462 1465 1469 1474 1481 1486 1492 1497 1504 1510 1516 1523 1529 1536 1542 1547 1552 1557 1561 1565 1568 1571 1574 1576 1578 1581 1584 1587 1590 1593 1597 1599 1602 1605 1606
1444 1422 1423 1427 1428 1435 1434 1435 1438 1443 1445 1446 1449 1454 1458 1461 1465 1471 1477 1483 1489 1495 1501 1508 1513 1520 1526 1531 1537 1543 1546 1552 1558 1563 1567 1570 1573 1576 1578 1581 1583 1586 1589 1592 1596 1599 1601 1604 1606
1443 1437 1422 1421 1426 1431 1427 1429 1436 1445 1447 1450 1447 1451 1455 1459 1464 1469 1473 1480 1485 1491 1498 1504 1510 1516 1522 1528 1534 1540 1545 1550 1556 1561 1565 1569 1572 1574 1577 1580 1583 1585 1588 1591 1594 1597 1599 1602 1605
1441 1438 1430 1417 1426 1426 1427 1428 1429 1449 1451 1454 1452 1453 1456 1459 1462 1467 1470 1476 1481 1488 1493 1500 1506 1513 1520 1526 1531 1537 1542 1548 1552 1557 1561 1564 1569 1573 1576 1579 1582 1585 1588 1590 1593 1596 1599 1601 1603
1439 1433 1436 1435 1418 1418 1422 1414 1423 1437 1449 1455 1458 1457 1458 1459 1461 1466 1469 1473 1478 1484 1490 1496 1503 1511 1517 1522 1528 1533 1537 1542 1546 1551 1558 1562 1567 1570 1575 1578 1581 1585 1587 1590 1592 1595 1597 1599 1601
1450 1442 1441 1433 1427 1410 1411 1417 1403 1427 1443 1452 1462 1463 1463 1463 1464 1468 1470 1472 1476 1482 1488 1494 1501 1507 1514 1520 1525 1531 1536 1541 1544 1550 1555 1559 1564 1567 1571 1575 1578 1582 1585 1588 1591 1594 1596 1598 1600
1460 1448 1437 1436 1429 1403 1390 1400 1403 1423 1430 1454 1466 1467 1467 1467 1468 1470 1470 1472 1476 1480 1486 1492 1498 1504 1510 1516 1522 1527 1532 1537 1542 1548 1553 1557 1562 1565 1568 1572 1576 1579 1582 1586 1589 1592 1594 1596 1598
1463 1448 1422 1428 1416 1386 1382 1398 1447 1459 1456 1457 1467 1471 1471 1471 1470 1472 1472 1474 1475 1478 1484 1489 1495 1501 1507 1513 1519 1524 1529 1533 1540 1544 1549 1553 1558 1561 1565 1569 1573 1576 1579 1582 1585 1588 1590 1593 1595
1475 1467 1439 1402 1396 1383 1376 1389 1453 1470 1470 1471 1473 1474 1474 1474 1474 1475 1474 1475 1475 1479 1484 1486 1491 1498 1504 1509 1515 1521 1527 1532 1537 1541 1545 1550 1554 1558 1562 1566 1569 1573 1576 1579 1582 1584 1587 1588 1591
1476 1466 1479 1460 1417 1393 1422 1468 1470 1474 1475 1477 1478 1479 1479 1478 1478 1480 1477 1476 1479 1482 1482 1485 1491 1495 1502 1507 1512 1518 1523 1529 1534 1538 1542 1547 1550 1554 1558 1562 1566 1569 1572 1575 1578 1580 1582 1584 1586
1493 1493 1469 1458 1417 1392 1435 1448 1463 1473 1478 1481 1483 1485 1485 1483 1482 1481 1480 1480 1482 1481 1483 1485 1490 1494 1498 1503 1508 1513 1519 1524 1529 1534 1538 1542 1546 1549 1553 1556 1560 1563 1566 1569 1572 1574 1577 1579 1580
1495 1496 1494 1490 1467 1417 1421 1467 1484 1478 1484 1487 1489 1489 1490 1488 1487 1486 1484 1485 1480 1485 1484 1486 1488 1490 1498 1501 1506 1510 1515 1519 1524 1529 1533 1537 1540 1544 1547 1550 1553 1556 1560 1563 1565 1568 1571 1573 1576
1508 1507 1502 1485 1462 1461 1454 1495 1489 1488 1490 1492 1493 1494 1494 1493 1492 1490 1488 1486 1486 1484 1489 1486 1492 1492 1497 1501 1502 1505 1511 1516 1519 1523 1527 1531 1534 1537 1541 1544 1547 1550 1553 1556 1558 1561 1564 1567 1569